SL-19 R/B, 23440

Orbit data source: Space-Track

SL-19 R/B, 23440 is space debris in LEO originally from a launch on Mon, 26 Dec 1994 UTC launched from the Tyuratam Missile And Space Complex (TTMTR). Debris objects in space refer to the collection of defunct objects orbiting the Earth. Examples of debris include non-operational satellites, rocket bodies, and fragments generated from explosions, collisions, or faulty payload assembly.

Loading next visibility...
Identifier
23440, 1994-085B
Orbit
LEO
Last TLE update
17 hours ago
Origin
Manufacturer
Khrunichev
Mission
Spacecraft
Bus & Motor
BRIZ, Unknown motor
Mass
~1,700 kg wet, ~1,700 kg dry
Launch date (UTC)
1994-12-26 (31 years ago)
Launch vehicle
Unknown
Launch site
Tyuratam Missile And Space Complex (TTMTR)
Object type
Payload
Rocket body
Debris
Shape & HBR
Hex Cyl + 1 Rod, 2.5 m
Radar Cross Section
5.049 m², Large (>1 m²)

Expand to show TLE details & history

TLE from 17 hours ago
0 SL-19 R/B
1 23440U 94085B   25183.43454128 -.00000036  00000-0  18210-3 0  9994
2 23440  64.8298 173.4064 0169969  46.6680 104.4456 11.27133624256194
Epoch: 2025-07-02T10:25Z
TLE epoch observation values (Epoch: 2025-07-02T10:25:44.366Z)
Latitude
24.30615°
Longitude
-95.94078°
Altitude
2,064.212 km
Speed
6.859 km/s
True Right ascension
22h 44m 50s
True Declination
24° 11' 50"
Sunlit
Object was in daylight at epoch
Visualization orbit readout
Latitude
-21.52367°
Longitude
-74.27931°
Altitude
2,162.753 km
Speed
6.779 km/s
Apparent Right ascension
01h 26m 13s
Apparent Declination
-31° 32' 25"
Sunlit
Object is in daylight
Visualization observer readout
Local Sidereal Time
15:31:29
Azimuth
81.526° E
Elevation
-63.393°
Doppler factor
1
Orbital elements
Apogee altitude
2,166.157 km
Perigee altitude
1,880.558 km
Semi-major axis
8,401.494 km
Eccentricity
0.017
Inclination
64.8298°
RAAN
173.4064°
Arg. of periapsis
46.668°
True anomaly
Unknown
Mean anomaly
104.4456°
Eccentric anomaly
Unknown
Mean motion
2.81844 °/min
Orbital period
127.73 mins
BSTAR
0.0001821
Loading maneuver chart data...
Loading SW <> Apogee altitude chart data...
Loading historical data...
Loading historical data...
Loading historical data...
Loading historical data...
Loading historical data...
Loading historical data...
Loading historical data...

SL-19 R/B Visibility forecast

Observer location: undefined°, undefined°

Span
Click to sort rows by Start time (UTC) header in descending order
Start Az.
Max El. time (UTC)
Max El. Az.
Max El.
End time (UTC)
End Az.
14 mins2025-07-03 05:04:14.767Z311.192° NW2025-07-03 05:11:14.767Z352.876° N17.742°2025-07-03 05:18:14.767Z33.394° NE
16 mins2025-07-03 07:21:14.767Z338.424° N2025-07-03 07:29:14.767Z29.972° NE23.99°2025-07-03 07:37:14.767Z78.802° E
21 mins2025-07-03 09:34:14.767Z331.517° NNW2025-07-03 09:44:14.767Z73.931° E43.755°2025-07-03 09:55:14.767Z140.652° SSE
17 mins2025-07-03 11:47:14.767Z306.759° NW2025-07-03 11:55:14.767Z255.714° W27.125°2025-07-03 12:04:14.767Z202.062° SSW
19 mins2025-07-03 23:57:14.767Z178.879° S2025-07-04 00:06:14.767Z109.243° ESE37.408°2025-07-04 00:16:14.767Z40.591° NE
19 mins2025-07-04 02:09:14.767Z242.655° WSW2025-07-04 02:18:14.767Z309.189° NW36.914°2025-07-04 02:28:14.767Z25.358° NE
|